Location: Eastview
(35.0756°N, 88.5453°W)
Time: 20:43:13
(UTC+00:00)

CZ-4 R/B - Pass Details

Date: 22 November 2019
Orbit: 530 x 601 km, 97.7° (Epoch: 11 December)

Event Time Altitude Azimuth Distance (km) Brightness Sun altitude
Rises 23:19:27 0° 130° (SE) 2,801 4.6 -7.4°
Reaches altitude 10° 23:22:13 10° 110° (ESE) 1,892 3.6 -7.9°
Maximum altitude 23:24:53 17° 69° (ENE) 1,479 2.9 -8.4°
Drops below altitude 10° 23:27:32 10° 28° (NNE) 1,873 3.6 -9.0°
Sets 23:30:15 0° 8° (N) 2,759 4.6 -9.5°
